(309650) = 2003 BD71 = 2006 UE340 = 2008 DF20

Discovered at Mount Lemmon on 2008-02-28 by Mt. Lemmon Survey.

Orbit

Orbit type: Main Belt

Note: WebGL enabled browser required.

epoch2023-02-25.0
epoch JD2460000.5
perihelion date2022-08-05.45030
perihelion JD2459796.95030
argument of perihelion (°)99.32805
ascending node (°)61.77253
inclination (°)2.36315
eccentricity0.1416966
perihelion distance (AU)2.4413858
Tisserand w.r.t. Jupiter3.3
ΔV w.r.t. Earth (km/sec)9.8
semimajor axis (AU)2.8444321
mean anomaly (°)41.81970
mean daily motion (°/day)0.20545210
aphelion distance (AU)3.247
period (years)4.8
P-vector [x]-0.94534922
P-vector [y]0.28063086
P-vector [z]0.16601558
Q-vector [x]-0.32402936
Q-vector [y]-0.86530104
Q-vector [z]-0.38243834
absolute magnitude17.1
phase slope0.15
uncertainty0
referenceMPO 745323
observations used200
oppositions14
arc length (days)8334
first opposition used2000
last opposition used2023
residual rms (arc-secs)0.76
perturbers coarse indicatorM-v
perturbers precise indicator003Ek
first observation date used2000-08-25.0
last observation date used2023-06-20.0
computer nameMPCLINUX
JD of orbit computation2456847.833339
perihelion JD uncertainty (days)9.6907E-05
argument of perihelion uncertainty (°)1.1942E-04
ascending node uncertainty (°)1.1776E-04
inclination uncertainty (°)5.2070E-06
eccentricity uncertainty 4.9606E-08
perihelion distance uncertainty (AU)1.3290E-07
Minimum Orbit Intersection Distances (in AU)
for orbit epoch: 2460000.5, reference: E2023-M76
Mercury2.06287
Venus1.72246
Earth1.45144
Mars0.77613
Jupiter1.73064
Saturn6.19866
Uranus15.9988
Neptune26.6698

Observations

205 total observations over interval: 2000 08 25.06076 – 2023 06 20.384079
These data are available for download (format description).

Date (UT) J2000 RA J2000 Dec Magn Location Ref
2000 08 25.06076 21 15 02.62 -19 26 33.0 21.2 R 807 – Cerro Tololo Observatory, La Serena MPS 311853
2000 08 25.12337 21 14 59.69 -19 26 44.5   807 – Cerro Tololo Observatory, La Serena MPS 311853
2003 01 31.28871 08 52 11.21 +21 22 08.6 20.6   644 – Palomar Mountain/NEAT MPS 71969
2003 01 31.35756 08 52 07.27 +21 22 25.5 20.3   644 – Palomar Mountain/NEAT MPS 71969
2003 01 31.42239 08 52 03.54 +21 22 41.1 20.3   644 – Palomar Mountain/NEAT MPS 71969
2003 02 01.46744 08 51 05.65 +21 26 55.9 20.6   608 – Haleakala-AMOS MPS 71969
2003 02 01.47829 08 51 05.05 +21 26 59.3 20.9   608 – Haleakala-AMOS MPS 71969
2003 02 01.48912 08 51 04.37 +21 27 01.4 20.7   608 – Haleakala-AMOS MPS 71969
2006 10 27.46959 03 00 38.21 +15 52 53.9 21.4 r 568 – Maunakea MPS 252748
2006 10 27.52176 03 00 35.51 +15 52 44.5 21.2 r 568 – Maunakea MPS 252748
2006 10 27.56612 03 00 33.22 +15 52 36.4 21.1 r 568 – Maunakea MPS 252748
2006 11 01.39326 02 56 25.50 +15 37 48.4 21.0 V 691 – Steward Observatory, Kitt Peak-Spacewatch MPS 252748
2006 11 01.41066 02 56 24.51 +15 37 45.2 21.1 V 691 – Steward Observatory, Kitt Peak-Spacewatch MPS 252748
2006 11 01.42805 02 56 23.59 +15 37 41.9 21.1 V 691 – Steward Observatory, Kitt Peak-Spacewatch MPS 252748
2006 11 21.17410 02 39 03.74 +14 34 18.2 21.4 V G96 – Mt. Lemmon Survey MPS 311853
2006 11 21.18297 02 39 03.31 +14 34 17.0 20.4 V G96 – Mt. Lemmon Survey MPS 311853
2006 11 21.19200 02 39 02.84 +14 34 14.7 21.0 V G96 – Mt. Lemmon Survey MPS 311853
2006 11 21.20097 02 39 02.37 +14 34 13.5 20.8 V G96 – Mt. Lemmon Survey MPS 311853
2008 02 28.21991 10 45 45.50 +12 07 49.2 19.9 V G96 – Mt. Lemmon Survey MPS 240907
2008 02 28.22712 10 45 45.10 +12 07 51.6 20.1 V G96 – Mt. Lemmon Survey MPS 240907
2008 02 28.23426 10 45 44.74 +12 07 53.6 20.0 V G96 – Mt. Lemmon Survey MPS 240907
2008 02 28.24140 10 45 44.35 +12 07 55.7 20.1 V G96 – Mt. Lemmon Survey MPS 240907
2008 02 29.36902 10 44 47.22 +12 13 25.6 20.2 V G96 – Mt. Lemmon Survey MPS 240907
2008 02 29.37444 10 44 46.93 +12 13 27.5 19.9 V G96 – Mt. Lemmon Survey MPS 240907
2008 02 29.38052 10 44 46.60 +12 13 28.9 19.9 V G96 – Mt. Lemmon Survey MPS 240907
2008 02 29.38583 10 44 46.28 +12 13 30.4 20.0 V G96 – Mt. Lemmon Survey MPS 240907
2008 03 10.31557 10 36 36.54 +12 57 30.3 19.6 V 703 – Catalina Sky Survey MPS 311853
2008 03 10.32110 10 36 36.32 +12 57 30.0 20.2 V 703 – Catalina Sky Survey MPS 311853
2008 03 10.32667 10 36 36.03 +12 57 32.9 20.4 V 703 – Catalina Sky Survey MPS 311853
2008 03 10.33220 10 36 35.64 +12 57 34.3 19.6 V 703 – Catalina Sky Survey MPS 311853
2008 03 12.22034 10 35 08.69 +13 04 42.6   704 – Lincoln Laboratory ETS, New Mexico MPS 407657
2008 03 12.23150 10 35 08.20 +13 04 45.1   704 – Lincoln Laboratory ETS, New Mexico MPS 407657
2008 03 12.24261 10 35 07.69 +13 04 46.8   704 – Lincoln Laboratory ETS, New Mexico MPS 407657
2008 03 12.25412 10 35 07.12 +13 04 47.8   704 – Lincoln Laboratory ETS, New Mexico MPS 407657
2008 03 28.13062 10 25 25.62 +13 43 44.9 20.6 V 691 – Steward Observatory, Kitt Peak-Spacewatch MPS 311853
2008 03 28.14939 10 25 25.06 +13 43 46.5 20.6 V 691 – Steward Observatory, Kitt Peak-Spacewatch MPS 311853
2008 03 28.16814 10 25 24.57 +13 43 47.5 20.4 V 691 – Steward Observatory, Kitt Peak-Spacewatch MPS 311853
2010 09 16.496918 23 10 01.383 -08 55 28.07 22.01 w F51 – Pan-STARRS 1, Haleakala MPS 382231
2010 09 16.508407 23 10 00.827 -08 55 31.22 21.98 w F51 – Pan-STARRS 1, Haleakala MPS 382231
2010 09 16.519957 23 10 00.275 -08 55 34.07 21.97 w F51 – Pan-STARRS 1, Haleakala MPS 382231
2011 10 26.43789 04 27 26.968 +21 26 28.25 22.0 w F51 – Pan-STARRS 1, Haleakala MPS 396402
2011 10 26.45245 04 27 26.507 +21 26 27.96 22.1 w F51 – Pan-STARRS 1, Haleakala MPS 396402
2011 10 26.46701 04 27 26.049 +21 26 27.44 22.2 w F51 – Pan-STARRS 1, Haleakala MPS 396402
2011 11 17.34399 04 11 19.68 +21 03 18.4 20.2 V G96 – Mt. Lemmon Survey MPS 400075
2011 11 17.35035 04 11 19.32 +21 03 17.5 20.3 V G96 – Mt. Lemmon Survey MPS 400075
2011 11 17.35674 04 11 18.96 +21 03 17.3 19.9 V G96 – Mt. Lemmon Survey MPS 400075
2011 11 17.36316 04 11 18.60 +21 03 16.3 20.3 V G96 – Mt. Lemmon Survey MPS 400075
2011 11 24.52059 04 04 34.502 +20 50 55.03 20.7 g F51 – Pan-STARRS 1, Haleakala MPS 401139
2011 11 24.53301 04 04 33.776 +20 50 53.59 21.0 g F51 – Pan-STARRS 1, Haleakala MPS 401139
2011 11 24.54654 04 04 32.986 +20 50 51.79 20.6 r F51 – Pan-STARRS 1, Haleakala MPS 401139
2011 11 24.55827 04 04 32.292 +20 50 50.40 20.5 r F51 – Pan-STARRS 1, Haleakala MPS 401139
2011 12 01.47989 03 57 54.927 +20 37 36.62 21.0 g F51 – Pan-STARRS 1, Haleakala MPS 402444
2011 12 01.50691 03 57 53.348 +20 37 33.50 20.9 r F51 – Pan-STARRS 1, Haleakala MPS 402444
2011 12 01.51979 03 57 52.594 +20 37 31.66 20.7 r F51 – Pan-STARRS 1, Haleakala MPS 402444
2011 12 31.16235 03 36 23.22 +19 51 04.6 20.8 V G96 – Mt. Lemmon Survey MPS 407154
2011 12 31.16919 03 36 22.96 +19 51 04.5 21.2 V G96 – Mt. Lemmon Survey MPS 407154
2011 12 31.17620 03 36 22.82 +19 51 03.8 21.2 V G96 – Mt. Lemmon Survey MPS 407154
2011 12 31.18318 03 36 22.64 +19 51 03.7 21.0 V G96 – Mt. Lemmon Survey MPS 407154
2013 03 12.33016 12 30 11.80 +00 27 38.8 20.7 V G96 – Mt. Lemmon Survey MPS 460487
2013 03 12.34029 12 30 11.34 +00 27 41.4 20.5 V G96 – Mt. Lemmon Survey MPS 460487
2013 03 12.35039 12 30 10.87 +00 27 44.3 20.5 V G96 – Mt. Lemmon Survey MPS 460487
2013 03 12.36056 12 30 10.44 +00 27 46.7 20.5 V G96 – Mt. Lemmon Survey MPS 460487
2013 03 16.24692 12 27 15.94 +00 45 54.8 19.7 G G45 – Space Surveillance Telescope, Atom Site MPS 1609369
2013 03 16.35941 12 27 10.49 +00 46 27.0 20.5 G G45 – Space Surveillance Telescope, Atom Site MPS 1609369
2013 03 16.37654 12 27 09.68 +00 46 32.3 20.5 G G45 – Space Surveillance Telescope, Atom Site MPS 1609369
2013 03 16.40142 12 27 08.49 +00 46 38.1 20.4 G G45 – Space Surveillance Telescope, Atom Site MPS 1609369
2013 03 18.265521 12 25 41.10 +00 55 34.7 20.9 g 309 – Cerro Paranal MPS 804631
2013 03 18.268114 12 25 40.96 +00 55 35.4 20.9 g 309 – Cerro Paranal MPS 804631
2013 03 18.270660 12 25 40.84 +00 55 36.1 20.9 g 309 – Cerro Paranal MPS 804631
2013 03 18.273253 12 25 40.70 +00 55 36.9 21.0 g 309 – Cerro Paranal MPS 804631
2013 03 18.275799 12 25 40.58 +00 55 37.5 21.0 g 309 – Cerro Paranal MPS 804631
2013 03 18.27622 12 25 40.75 +00 55 31.2 20.7 G G45 – Space Surveillance Telescope, Atom Site MPS 1609369
2013 03 18.35256 12 25 36.99 +00 55 53.8 20.1 G G45 – Space Surveillance Telescope, Atom Site MPS 1609369
2013 03 18.36459 12 25 36.42 +00 55 57.2 20.2 G G45 – Space Surveillance Telescope, Atom Site MPS 1609369
2013 03 18.39469 12 25 34.92 +00 56 06.4 20.0 G G45 – Space Surveillance Telescope, Atom Site MPS 1609369
2013 03 20.24343 12 24 06.78 +01 04 53.5 19.9 G G45 – Space Surveillance Telescope, Atom Site MPS 1609369
2013 03 20.26681 12 24 05.65 +01 05 00.3 19.4 G G45 – Space Surveillance Telescope, Atom Site MPS 1609369
2013 03 20.34485 12 24 01.73 +01 05 22.7 20.4 G G45 – Space Surveillance Telescope, Atom Site MPS 1609369
2013 03 20.35689 12 24 01.13 +01 05 26.4 20.8 G G45 – Space Surveillance Telescope, Atom Site MPS 1609369
2013 04 04.39029 12 11 55.967 +02 12 20.23 20.2 w F51 – Pan-STARRS 1, Haleakala MPS 462617
2013 04 04.40502 12 11 55.265 +02 12 23.57 20.2 w F51 – Pan-STARRS 1, Haleakala MPS 462617
2013 04 10.34907 12 07 35.987 +02 33 30.98 20.7 g F51 – Pan-STARRS 1, Haleakala MPS 463955
2013 04 10.36086 12 07 35.475 +02 33 33.23 20.7 g F51 – Pan-STARRS 1, Haleakala MPS 463955
2014 07 01.46219 19 34 25.600 -24 13 20.12 21.4 w F51 – Pan-STARRS 1, Haleakala MPS 522126
2014 07 01.48942 19 34 24.123 -24 13 24.20 21.3 w F51 – Pan-STARRS 1, Haleakala MPS 522126
2014 07 01.50304 19 34 23.393 -24 13 26.32 21.2 w F51 – Pan-STARRS 1, Haleakala MPS 522126
2014 07 03.44750 19 32 41.118 -24 18 24.48 21.4 w F51 – Pan-STARRS 1, Haleakala MPS 522126
2014 07 03.46164 19 32 40.346 -24 18 26.43 21.1 w F51 – Pan-STARRS 1, Haleakala MPS 522126
2014 07 03.47581 19 32 39.573 -24 18 28.55 21.2 w F51 – Pan-STARRS 1, Haleakala MPS 522126
2014 07 03.48998 19 32 38.795 -24 18 30.60 21.0 w F51 – Pan-STARRS 1, Haleakala MPS 522126
